CAPE
455 524 762 927 1001 999 944 883 870 831 835 667 631 609 593 607 631 649 667 702 688 612 589 574 546 475 393 516 800 968 1051 981 1022 1053 1195 1259 1221 1368 1467 1598 1161 905 1420
454 494 712 891 1030 1059 981 996 1016 997 849 735 685 623 602 581 566 531 542 555 557 486 422 396 333 322 325 366 373 404 744 939 923 999 1090 993 1059 913 960 1571 1215 1322 1200
451 518 694 863 1068 1154 1122 1062 1091 881 735 775 742 702 606 478 435 554 541 386 197 120 86 47 22 22 28 89 240 383 371 327 456 704 775 468 683 873 788 1514 1342 1882 1515
450 534 720 927 1058 1183 1214 1194 1113 871 849 845 748 626 436 426 547 450 273 125 47 17 0 0 0 0 0 0 2 18 89 210 281 329 477 737 881 1000 828 713 1286 1422 1644
501 606 848 899 989 1125 1137 1105 1064 1115 1138 913 683 474 488 548 383 189 100 36 3 0 0 0 0 0 0 0 0 0 0 17 67 232 393 802 636 1051 1190 826 1050 1519 1759
588 754 826 874 973 1159 1197 1092 1067 1090 999 873 707 514 536 381 185 100 45 5 0 0 0 0 0 0 0 0 0 0 0 0 0 128 301 469 760 914 1138 669 646 1102 1025
661 756 891 906 937 1031 955 905 928 939 869 873 759 624 467 289 155 48 14 1 0 0 0 0 0 0 0 0 1 0 0 0 23 135 343 349 230 941 493 323 704 1110 1116
697 777 851 877 871 919 904 870 790 731 767 816 840 726 415 365 236 42 9 0 0 0 0 0 0 0 0 0 8 0 0 0 0 0 3 375 262 416 874 686 1052 1014 1237
733 639 611 607 619 590 512 488 486 562 608 640 698 706 557 413 249 164 31 0 0 0 0 0 0 0 0 0 0 0 0 0 0 67 142 352 380 736 809 1167 1380 1223 1059
294 197 142 179 222 174 179 233 289 349 354 445 475 344 205 180 152 128 35 13 0 0 0 9 11 5 0 0 0 0 0 0 0 0 0 147 722 668 511 757 1182 1265 1317
0 0 0 10 12 5 0 60 194 256 226 264 244 147 58 43 36 35 66 27 40 26 30 45 88 42 0 0 0 0 0 0 0 0 0 0 375 685 561 614 627 720 781
0 0 0 0 0 0 2 30 12 73 33 122 202 114 89 121 174 79 73 93 164 111 138 86 33 30 0 0 0 0 0 0 0 0 0 0 167 333 110 216 359 438 546
0 0 0 0 0 10 6 11 56 112 118 172 230 243 208 185 163 176 26 0 0 0 0 0 0 0 0 0 0 0 0 0 0 0 0 0 78 59 0 0 32 8 140
39 49 48 0 0 3 49 31 86 202 212 316 311 133 70 0 0 0 0 0 0 0 0 0 0 0 0 0 0 0 0 0 0 0 0 0 0 0 0 0 0 0 36
114 147 218 119 2 6 56 103 70 205 377 441 223 26 0 0 0 0 0 0 0 0 0 0 0 0 0 0 0 0 0 0 0 0 0 0 0 0 5 0 5 0 55
227 241 267 214 99 19 98 131 150 191 462 282 53 0 0 0 0 0 0 0 0 0 0 0 0 0 0 0 0 0 0 0 0 0 0 0 0 0 0 0 0 24 24
258 285 307 269 77 86 125 117 53 79 200 123 0 0 0 0 0 0 0 0 0 0 0 0 0 0 0 0 0 0 0 0 0 0 0 0 0 0 0 0 0 0 72
287 344 283 250 100 56 56 53 12 0 13 7 0 0 0 0 0 0 0 0 0 0 0 0 0 0 0 0 0 0 0 0 0 0 0 0 0 0 0 0 0 0 0
421 390 232 94 113 14 64 15 15 10 0 2 0 0 1 2 1 5 0 0 8 5 0 0 0 0 0 0 0 0 0 0 0 0 0 0 0 0 0 0 0 0 0
466 428 249 158 104 51 62 43 26 17 14 18 29 40 33 20 21 10 11 15 0 0 0 0 0 0 0 0 0 0 0 0 0 0 0 0 0 0 0 0 0 0 0
576 435 219 192 64 60 70 65 34 35 30 35 44 26 41 15 11 1 0 0 0 0 0 0 0 0 0 0 0 0 0 0 0 0 0 0 0 0 0 0 0 0 0
325 113 50 48 83 119 81 59 51 55 52 41 11 16 2 0 0 1 0 0 0 0 0 0 0 0 0 0 0 0 0 0 0 0 0 0 0 0 0 0 0 0 0
29 3 0 0 0 14 62 32 20 7 0 0 0 0 0 0 0 0 0 0 0 0 0 0 0 0 0 0 0 0 0 0 0 0 0 0 0 0 0 0 0 0 0
0 0 0 0 0 0 0 0 0 0 0 0 0 0 0 2 2 5 1 0 0 0 0 0 0 0 0 0 0 0 0 1 0 0 2 0 0 0 0 0 0 0 0
0 0 0 0 0 0 0 0 0 0 0 0 0 2 6 14 16 0 14 3 0 0 0 0 0 0 0 0 0 0 0 3 2 0 0 0 0 0 0 0 0 0 0
0 0 0 0 0 0 0 0 0 0 0 2 6 6 8 10 9 0 0 0 0 0 0 0 0 0 0 0 0 0 0 0 0 0 0 0 7 3 1 0 0 0 0
CIN
-13 -2 -6 -16 -14 -15 -19 -24 -23 -13 -22 -66 -79 -93 -103 -95 -80 -67 -53 -36 -30 -34 -42 -33 -38 -57 -73 -72 -44 -25 -19 -28 -44 -49 -54 -48 -30 -25 -37 -48 -74 -83 -45
-31 -19 -14 -24 -16 -16 -21 -17 -3 -4 -17 -41 -65 -84 -100 -104 -89 -73 -48 -34 -41 -57 -64 -62 -47 -44 -53 -54 -60 -62 -25 -22 -39 -40 -38 -41 -36 -39 -47 -27 -52 -45 -32
-43 -35 -30 -31 -14 -8 -8 -3 0 -17 -49 -39 -53 -77 -90 -119 -108 -55 -46 -92 -166 -186 -179 -197 -217 -232 -196 -128 -72 -35 -54 -90 -68 -69 -73 -77 -56 -51 -68 -54 -58 -13 -13
-54 -49 -32 -21 -13 0 0 0 0 -22 -26 -29 -54 -74 -122 -108 -72 -110 -173 -225 -241 -278 0 0 0 0 0 0 -159 -245 -188 -133 -101 -114 -68 -64 -58 -50 -67 -77 -39 -28 -7
-19 -29 -20 -24 -13 -1 0 0 0 0 -2 -4 -48 -106 -104 -82 -125 -196 -253 -281 -145 0 0 0 0 0 0 0 0 0 0 -194 -231 -101 -60 -31 -97 -72 -47 -91 -65 -35 -15
-11 -5 -21 -23 -16 0 0 -1 -3 -2 -3 -17 -51 -100 -87 -124 -182 -238 -259 -150 0 0 0 0 0 0 0 0 0 0 0 0 0 -73 -42 -52 -59 -39 -20 -70 -80 -48 -41
-6 -14 -7 -10 -9 -6 -14 -21 -16 -12 -28 -23 -45 -83 -117 -145 -188 -237 -278 -116 0 0 0 0 0 0 0 0 -61 0 0 0 -104 -32 -23 -28 -40 -52 -62 -122 -73 -30 -49
-50 -22 -15 -31 -39 -38 -38 -41 -58 -68 -57 -55 -50 -68 -134 -129 -149 -226 -297 0 0 0 0 0 0 0 0 0 -182 0 0 0 0 0 -29 -17 -23 -94 -48 -46 -27 -38 -36
-47 -72 -85 -100 -120 -142 -148 -138 -135 -125 -118 -115 -92 -84 -95 -115 -145 -150 -212 0 0 0 0 0 0 0 0 0 0 0 0 0 0 -69 -36 -24 -6 -33 -23 -10 -14 -19 -30
-149 -211 -264 -285 -270 -279 -260 -256 -241 -222 -208 -164 -142 -155 -186 -181 -178 -170 -223 -226 0 0 0 -149 -137 -127 0 0 0 0 0 0 0 0 0 -45 -25 -5 -2 -4 -8 -18 -20
0 0 0 -383 -392 -410 0 -320 -254 -226 -227 -208 -200 -223 -248 -167 -205 -152 -232 -152 -204 -195 -148 -120 -91 -106 0 0 0 0 0 0 0 0 0 0 -40 -10 -3 -5 -13 -17 -20
0 0 0 0 0 0 -247 -363 -279 -280 -220 -126 -116 -150 -169 -143 -111 -146 -131 -182 -126 -134 -110 -118 -44 -124 0 0 0 0 0 0 0 0 0 0 -53 -19 -18 -14 -14 -16 -18
0 0 0 0 0 -213 -216 -283 -175 -166 -149 -149 -160 -143 -140 -140 -117 -103 -160 0 0 0 0 0 0 0 0 0 0 0 0 0 0 0 0 0 -73 -41 0 0 -22 -18 -24
-144 -57 -84 0 0 -163 -166 -151 -142 -117 -125 -107 -142 -177 -183 0 0 0 0 0 0 0 0 0 0 0 0 0 0 0 0 0 0 0 0 0 0 0 0 0 0 0 -27
-113 -74 -56 -69 -37 -160 -151 -130 -152 -127 -105 -92 -135 -140 0 0 0 0 0 0 0 0 0 0 0 0 0 0 0 0 0 0 0 0 0 0 0 0 -16 0 -5 0 -13
-156 -90 -34 -43 -90 -177 -103 -119 -107 -124 -71 -103 -109 0 0 0 0 0 0 0 0 0 0 0 0 0 0 0 0 0 0 0 0 0 0 0 0 0 0 0 0 -16 -8
-102 -50 -18 -23 -66 -65 -48 -45 -92 -84 -88 -60 0 0 0 0 0 0 0 0 0 0 0 0 0 0 0 0 0 0 0 0 0 0 0 0 0 0 0 0 0 0 -24
-51 -38 -24 -17 -19 -62 -31 -25 -27 -3 -74 -81 0 0 0 0 0 0 0 0 0 0 0 0 0 0 0 0 0 0 0 0 0 0 0 0 0 0 0 0 0 0 0
-115 -40 -37 -35 -30 -16 -15 -32 -86 -20 -3 -58 -12 0 -6 -27 -16 -39 0 -2 -5 -3 0 0 0 0 0 0 0 0 0 0 0 0 0 0 0 0 0 0 0 0 0
-144 -69 -40 -35 -19 -7 -33 -50 -41 -42 -50 -56 -27 -23 -5 -2 -9 -9 -3 -3 0 0 0 0 0 0 0 0 0 0 0 0 0 0 0 0 0 0 0 0 0 0 0
-123 -70 -39 -37 -69 -79 -59 -45 -34 -38 -26 -10 -6 -8 -1 -16 -19 -20 0 0 0 0 0 0 0 0 0 0 0 0 0 0 0 0 0 0 0 0 0 0 0 0 0
-81 -42 -31 -13 -73 -40 -26 -9 -10 0 -1 -1 -10 -3 -15 0 0 -8 0 0 0 0 0 0 0 0 0 0 0 0 0 0 0 0 0 0 0 0 0 0 0 0 0
-19 -12 0 0 0 -6 -5 -7 -1 -1 0 0 0 0 0 0 0 0 0 0 0 0 0 0 0 0 0 0 0 0 0 0 0 0 0 0 0 0 0 0 0 0 0
-3 0 0 0 0 0 0 0 0 0 0 0 0 0 0 -1 -2 -2 -2 0 0 0 0 0 0 0 0 0 0 0 0 0 0 0 -1 0 0 0 0 0 0 0 0
0 0 0 0 0 0 0 0 0 0 0 0 0 -3 -2 -1 -1 0 0 0 0 0 0 0 0 0 0 0 0 0 0 -1 -6 0 0 0 0 0 0 0 0 0 0
0 0 0 0 0 0 0 0 0 0 0 -1 0 -1 -1 -3 -2 0 0 0 0 0 0 0 0 0 0 0 0 0 0 0 0 0 0 0 0 0 0 0 0 0 0
Wind_Speed
29 25 35 37 36 38 40 36 32 29 28 26 21 19 18 18 16 15 15 12 11 12 14 14 14 15 13 13 14 16 16 19 15 17 18 16 20 23 25 32 31 35 42
32 28 34 39 41 39 36 32 27 24 22 17 13 12 10 9 8 8 10 12 13 15 15 16 17 17 15 14 13 13 14 13 14 15 12 16 18 22 22 25 26 31 34
38 37 39 41 40 34 33 25 23 20 17 12 9 8 9 10 12 14 15 16 18 19 nan nan nan nan nan nan 17 14 13 11 9 9 10 16 18 24 23 25 22 27 29
42 38 36 39 35 32 25 23 19 19 14 9 11 12 14 16 16 18 18 19 nan nan nan nan nan nan nan nan nan nan nan 16 13 11 14 19 21 21 19 17 16 16 20
41 37 33 32 30 25 20 17 16 12 11 12 14 17 19 20 21 21 22 nan nan nan nan nan nan nan nan nan nan nan nan nan nan 19 16 16 19 17 14 16 17 13 16
38 29 29 28 22 16 12 11 10 11 11 14 17 21 21 23 23 24 nan nan nan nan nan nan nan nan nan nan nan nan nan nan nan 19 17 15 15 14 16 12 12 12 11
31 25 23 18 13 10 7 7 8 10 14 18 20 23 24 25 25 nan nan nan nan nan nan nan nan nan nan nan nan nan nan nan nan 23 18 16 16 11 13 12 15 8 11
27 22 14 10 9 7 6 7 10 14 17 19 22 23 25 26 26 nan nan nan nan nan nan nan nan nan nan nan nan nan nan nan nan nan nan 22 16 11 10 13 13 11 9
20 14 10 10 7 9 10 12 13 17 20 22 23 22 22 25 27 29 nan nan nan nan nan nan nan nan nan nan nan nan nan nan nan nan 27 26 21 19 14 13 12 10 8
12 8 8 8 10 10 11 14 18 22 23 22 22 23 24 26 27 28 nan nan nan nan nan nan nan nan nan nan nan nan nan nan nan nan nan 25 22 23 19 18 16 15 15
nan nan nan nan nan nan nan nan 21 22 22 23 24 26 nan nan nan nan nan nan nan nan nan nan nan nan nan nan nan nan nan nan nan nan nan nan 20 23 24 23 22 19 17
nan nan nan nan nan nan nan nan nan nan nan 23 22 24 nan 22 22 nan nan nan 24 24 25 nan nan nan nan nan nan nan nan nan nan nan nan nan 23 20 22 24 23 20 19
nan nan nan nan nan nan nan nan nan 24 25 26 27 26 26 26 24 28 nan nan nan nan nan nan nan nan nan nan nan nan nan nan nan nan nan nan nan nan nan nan nan nan 22
nan nan nan nan nan nan nan nan nan 22 22 23 26 30 nan nan nan nan nan nan nan nan nan nan nan nan nan nan nan nan nan nan nan nan nan nan nan nan nan nan nan nan nan
18 19 18 18 nan nan nan 22 nan 21 25 28 30 nan nan nan nan nan nan nan nan nan nan nan nan nan nan nan nan nan nan nan nan nan nan nan nan nan nan nan nan nan nan
18 18 20 22 nan nan nan 22 23 28 36 36 nan nan nan nan nan nan nan nan nan nan nan nan nan nan nan nan nan nan nan nan nan nan nan nan nan nan nan nan nan nan nan
15 17 21 22 nan nan 22 24 nan nan 29 38 nan nan nan nan nan nan nan nan nan nan nan nan nan nan nan nan nan nan nan nan nan nan nan nan nan nan nan nan nan nan nan
22 26 22 20 20 nan nan nan nan nan nan nan nan nan nan nan nan nan nan nan nan nan nan nan nan nan nan nan nan nan nan nan nan nan nan nan nan nan nan nan nan nan nan
25 29 24 nan 20 nan nan nan nan nan nan nan nan nan nan nan nan nan nan nan nan nan nan nan nan nan nan nan nan nan nan nan nan nan nan nan nan nan nan nan nan nan nan
32 27 24 28 29 nan nan nan nan nan nan nan nan nan nan nan nan nan nan nan nan nan nan nan nan nan nan nan nan nan nan nan nan nan nan nan nan nan nan nan nan nan nan
27 25 25 29 nan nan nan nan nan nan nan nan nan nan nan nan nan nan nan nan nan nan nan nan nan nan nan nan nan nan nan nan nan nan nan nan nan nan nan nan nan nan nan
26 31 nan nan nan 52 nan nan nan nan nan nan nan nan nan nan nan nan nan nan nan nan nan nan nan nan nan nan nan nan nan nan nan nan nan nan nan nan nan nan nan nan nan
nan nan nan nan nan nan nan nan nan nan nan nan nan nan nan nan nan nan nan nan nan nan nan nan nan nan nan nan nan nan nan nan nan nan nan nan nan nan nan nan nan nan nan
nan nan nan nan nan nan nan nan nan nan nan nan nan nan nan nan nan nan nan nan nan nan nan nan nan nan nan nan nan nan nan nan nan nan nan nan nan nan nan nan nan nan nan
nan nan nan nan nan nan nan nan nan nan nan nan nan nan nan nan nan nan nan nan nan nan nan nan nan nan nan nan nan nan nan nan nan nan nan nan nan nan nan nan nan nan nan
nan nan nan nan nan nan nan nan nan nan nan nan nan nan nan nan nan nan nan nan nan nan nan nan nan nan nan nan nan nan nan nan nan nan nan nan nan nan nan nan nan nan nan
Wind_Direction
301 282 283 295 302 303 304 302 300 301 295 290 289 296 298 295 291 291 294 294 298 295 286 293 290 294 298 297 291 287 284 263 265 276 282 288 286 286 290 289 280 273 272
295 286 295 298 306 306 301 298 299 295 290 291 295 300 295 301 301 295 289 283 283 279 281 279 282 289 290 300 308 306 299 292 269 262 272 272 283 287 279 296 282 272 273
289 291 293 301 303 296 295 297 297 296 293 288 291 288 296 294 284 277 270 269 268 272 nan nan nan nan nan nan 284 283 293 298 299 291 288 287 291 287 283 291 299 288 286
291 287 290 296 291 294 299 298 291 289 289 278 274 279 278 274 275 276 276 274 nan nan nan nan nan nan nan nan nan nan nan 281 296 302 315 315 307 307 306 294 283 279 285
285 285 289 286 293 293 295 285 276 278 266 263 270 271 274 278 276 276 277 nan nan nan nan nan nan nan nan nan nan nan nan nan nan 289 305 327 326 329 312 290 280 270 289
280 282 279 282 282 285 278 271 266 265 265 264 269 275 277 278 283 280 nan nan nan nan nan nan nan nan nan nan nan nan nan nan nan 287 296 308 311 311 314 304 307 295 287
281 270 272 273 271 274 282 296 286 273 266 270 278 284 285 289 290 nan nan nan nan nan nan nan nan nan nan nan nan nan nan nan nan 279 289 295 287 277 288 302 315 303 261
276 268 263 266 261 268 284 287 277 272 272 279 283 289 296 297 298 nan nan nan nan nan nan nan nan nan nan nan nan nan nan nan nan nan nan 282 278 267 268 287 288 270 254
266 256 219 219 258 287 284 280 279 282 284 287 292 299 302 304 304 299 nan nan nan nan nan nan nan nan nan nan nan nan nan nan nan nan 271 275 278 276 279 279 273 273 262
243 221 222 239 254 265 273 295 292 291 295 297 299 300 302 300 299 303 nan nan nan nan nan nan nan nan nan nan nan nan nan nan nan nan nan 272 264 271 270 260 255 252 255
nan nan nan nan nan nan nan nan 291 293 293 294 298 301 nan nan nan nan nan nan nan nan nan nan nan nan nan nan nan nan nan nan nan nan nan nan 260 261 264 261 257 255 254
nan nan nan nan nan nan nan nan nan nan nan 287 289 292 nan 301 307 nan nan nan 302 300 298 nan nan nan nan nan nan nan nan nan nan nan nan nan 282 271 264 267 269 265 257
nan nan nan nan nan nan nan nan nan 289 294 301 309 304 305 302 304 302 nan nan nan nan nan nan nan nan nan nan nan nan nan nan nan nan nan nan nan nan nan nan nan nan 272
nan nan nan nan nan nan nan nan nan 287 298 305 305 308 nan nan nan nan nan nan nan nan nan nan nan nan nan nan nan nan nan nan nan nan nan nan nan nan nan nan nan nan nan
323 322 329 312 nan nan nan 300 nan 285 292 319 306 nan nan nan nan nan nan nan nan nan nan nan nan nan nan nan nan nan nan nan nan nan nan nan nan nan nan nan nan nan nan
326 320 302 307 nan nan nan 315 307 278 294 303 nan nan nan nan nan nan nan nan nan nan nan nan nan nan nan nan nan nan nan nan nan nan nan nan nan nan nan nan nan nan nan
302 293 283 289 nan nan 282 299 nan nan 305 308 nan nan nan nan nan nan nan nan nan nan nan nan nan nan nan nan nan nan nan nan nan nan nan nan nan nan nan nan nan nan nan
282 284 284 289 291 nan nan nan nan nan nan nan nan nan nan nan nan nan nan nan nan nan nan nan nan nan nan nan nan nan nan nan nan nan nan nan nan nan nan nan nan nan nan
288 293 284 nan 294 nan nan nan nan nan nan nan nan nan nan nan nan nan nan nan nan nan nan nan nan nan nan nan nan nan nan nan nan nan nan nan nan nan nan nan nan nan nan
294 296 299 298 292 nan nan nan nan nan nan nan nan nan nan nan nan nan nan nan nan nan nan nan nan nan nan nan nan nan nan nan nan nan nan nan nan nan nan nan nan nan nan
285 287 292 294 nan nan nan nan nan nan nan nan nan nan nan nan nan nan nan nan nan nan nan nan nan nan nan nan nan nan nan nan nan nan nan nan nan nan nan nan nan nan nan
297 296 nan nan nan 303 nan nan nan nan nan nan nan nan nan nan nan nan nan nan nan nan nan nan nan nan nan nan nan nan nan nan nan nan nan nan nan nan nan nan nan nan nan
nan nan nan nan nan nan nan nan nan nan nan nan nan nan nan nan nan nan nan nan nan nan nan nan nan nan nan nan nan nan nan nan nan nan nan nan nan nan nan nan nan nan nan
nan nan nan nan nan nan nan nan nan nan nan nan nan nan nan nan nan nan nan nan nan nan nan nan nan nan nan nan nan nan nan nan nan nan nan nan nan nan nan nan nan nan nan
nan nan nan nan nan nan nan nan nan nan nan nan nan nan nan nan nan nan nan nan nan nan nan nan nan nan nan nan nan nan nan nan nan nan nan nan nan nan nan nan nan nan nan
nan nan nan nan nan nan nan nan nan nan nan nan nan nan nan nan nan nan nan nan nan nan nan nan nan nan nan nan nan nan nan nan nan nan nan nan nan nan nan nan nan nan nan